• In Italy
  • List of Countries
  • For 7 days
  • Water Temperature
  • Satellite Maps
  • Weather Map
  • Weather Widgets
  • user-avatar
    Login

    Hourly Weather Townsville

    Today, 18 August, Saturday

    Time Temperature Precipitation Wind Pressure Humidity
    00:00 +19°C° 0 mm 1 mps 755 mmHg 89%
    01:00 +19°C° 0 mm 1 mps 755 mmHg 91%
    02:00 +19°C° 0 mm 1 mps 755 mmHg 92%
    03:00 +19°C° 0 mm 1 mps 755 mmHg 92%
    04:00 +19°C° 0 mm 1 mps 755 mmHg 93%
    05:00 +18°C° 0 mm 1 mps 755 mmHg 92%
    06:00 +18°C° 0 mm 1 mps 755 mmHg 92%
    07:00 +18°C° 0 mm 1 mps 755 mmHg 92%
    08:00 +22°C° 0 mm 1 mps 756 mmHg 74%
    09:00 +26°C° 0 mm 1 mps 756 mmHg 56%
    10:00 +30°C° 0 mm 1 mps 756 mmHg 37%
    11:00 +31°C° 0 mm 1 mps 756 mmHg 33%
    12:00 +32°C° 0 mm 2 mps 755 mmHg 28%
    13:00 +34°C° 0 mm 2 mps 754 mmHg 23%
    14:00 +33°C° 0 mm 3 mps 754 mmHg 25%
    15:00 +33°C° 0 mm 3 mps 753 mmHg 27%
    16:00 +32°C° 0 mm 4 mps 753 mmHg 29%
    17:00 +28°C° 0 mm 3 mps 753 mmHg 42%
    18:00 +25°C° 0 mm 3 mps 754 mmHg 55%
    19:00 +21°C° 0 mm 2 mps 754 mmHg 68%
    20:00 +21°C° 0 mm 2 mps 754 mmHg 73%
    21:00 +21°C° 0 mm 1 mps 755 mmHg 79%
    22:00 +20°C° 0 mm 1 mps 756 mmHg 84%
    23:00 +20°C° 0 mm 1 mps 756 mmHg 86%

    Tomorrow, 19 August, Sunday

    Time Temperature Precipitation Wind Pressure Humidity
    00:00 +19°C° 0 mm 1 mps 756 mmHg 87%
    01:00 +19°C° 0 mm 1 mps 756 mmHg 89%
    02:00 +19°C° 0 mm 1 mps 755 mmHg 88%
    03:00 +17°C° 0 mm 2 mps 755 mmHg 88%
    04:00 +17°C° 0 mm 3 mps 755 mmHg 87%
    05:00 +17°C° 0 mm 3 mps 756 mmHg 85%
    06:00 +17°C° 0 mm 3 mps 756 mmHg 83%
    07:00 +17°C° 0 mm 4 mps 756 mmHg 81%
    08:00 +20°C° 0 mm 4 mps 757 mmHg 60%
    09:00 +25°C° 0 mm 5 mps 757 mmHg 39%
    10:00 +28°C° 0 mm 6 mps 757 mmHg 18%
    11:00 +29°C° 0 mm 5 mps 757 mmHg 17%
    12:00 +30°C° 0 mm 5 mps 756 mmHg 16%
    13:00 +32°C° 0 mm 4 mps 756 mmHg 15%
    14:00 +32°C° 0 mm 4 mps 755 mmHg 15%
    15:00 +32°C° 0 mm 5 mps 755 mmHg 15%
    16:00 +32°C° 0 mm 5 mps 754 mmHg 15%
    17:00 +28°C° 0 mm 4 mps 755 mmHg 20%
    18:00 +26°C° 0 mm 4 mps 755 mmHg 25%
    19:00 +22°C° 0 mm 3 mps 756 mmHg 29%
    20:00 +21°C° 0 mm 3 mps 756 mmHg 30%
    21:00 +20°C° 0 mm 3 mps 757 mmHg 32%
    22:00 +19°C° 0 mm 3 mps 757 mmHg 33%
    23:00 +18°C° 0 mm 4 mps 757 mmHg 29%

    Day after tomorrow, 20 August, Monday

    Time Temperature Precipitation Wind Pressure Humidity
    00:00 +18°C° 0 mm 4 mps 757 mmHg 24%
    01:00 +16°C° 0 mm 5 mps 757 mmHg 20%
    02:00 +15°C° 0 mm 6 mps 757 mmHg 22%
    03:00 +14°C° 0 mm 6 mps 757 mmHg 23%
    04:00 +14°C° 0 mm 7 mps 757 mmHg 24%
    05:00 +12°C° 0 mm 7 mps 758 mmHg 25%
    06:00 +11°C° 0 mm 7 mps 758 mmHg 27%
    07:00 +11°C° 0 mm 7 mps 759 mmHg 28%
    08:00 +14°C° 0 mm 7 mps 759 mmHg 25%
    09:00 +17°C° 0 mm 6 mps 759 mmHg 21%
    10:00 +20°C° 0 mm 6 mps 759 mmHg 17%
    11:00 +22°C° 0 mm 5 mps 759 mmHg 15%
    12:00 +25°C° 0 mm 5 mps 758 mmHg 12%
    13:00 +26°C° 0 mm 4 mps 757 mmHg 10%
    14:00 +26°C° 0 mm 4 mps 757 mmHg 11%
    15:00 +26°C° 0 mm 4 mps 756 mmHg 11%
    16:00 +26°C° 0 mm 5 mps 756 mmHg 12%
    17:00 +22°C° 0 mm 4 mps 756 mmHg 25%
    18:00 +19°C° 0 mm 4 mps 756 mmHg 37%
    19:00 +16°C° 0 mm 3 mps 757 mmHg 49%
    20:00 +14°C° 0 mm 3 mps 757 mmHg 57%
    21:00 +14°C° 0 mm 3 mps 758 mmHg 66%
    22:00 +13°C° 0 mm 3 mps 758 mmHg 74%
    23:00 +12°C° 0 mm 3 mps 758 mmHg 77%

    21 August, Tuesday

    Time Temperature Precipitation Wind Pressure Humidity
    00:00 +12°C° 0 mm 3 mps 757 mmHg 81%
    01:00 +12°C° 0 mm 3 mps 757 mmHg 85%
    02:00 +11°C° 0 mm 3 mps 757 mmHg 84%
    03:00 +11°C° 0 mm 3 mps 757 mmHg 83%
    04:00 +11°C° 0 mm 3 mps 756 mmHg 82%
    05:00 +11°C° 0 mm 3 mps 757 mmHg 75%
    06:00 +11°C° 0 mm 3 mps 757 mmHg 69%
    07:00 +11°C° 0 mm 3 mps 757 mmHg 63%
    08:00 +14°C° 0 mm 3 mps 757 mmHg 49%
    09:00 +18°C° 0 mm 4 mps 757 mmHg 36%
    10:00 +22°C° 0 mm 4 mps 757 mmHg 23%
    11:00 +23°C° 0 mm 4 mps 757 mmHg 22%
    12:00 +25°C° 0 mm 4 mps 756 mmHg 21%
    13:00 +27°C° 0 mm 4 mps 755 mmHg 20%
    14:00 +26°C° 0 mm 4 mps 755 mmHg 25%
    15:00 +25°C° 0 mm 4 mps 754 mmHg 31%
    16:00 +25°C° 0 mm 4 mps 753 mmHg 37%
    17:00 +21°C° 0 mm 3 mps 754 mmHg 48%
    18:00 +19°C° 0 mm 3 mps 754 mmHg 59%
    19:00 +17°C° 0 mm 2 mps 755 mmHg 71%
    20:00 +17°C° 0 mm 2 mps 755 mmHg 74%
    21:00 +16°C° 0 mm 2 mps 755 mmHg 76%
    22:00 +16°C° 0 mm 2 mps 756 mmHg 79%
    23:00 +16°C° 0 mm 2 mps 755 mmHg 80%

    22 August, Wednesday

    Time Temperature Precipitation Wind Pressure Humidity
    00:00 +15°C° 0 mm 2 mps 755 mmHg 81%
    01:00 +15°C° 0 mm 2 mps 755 mmHg 82%
    02:00 +15°C° 0 mm 2 mps 755 mmHg 84%
    03:00 +15°C° 0 mm 2 mps 755 mmHg 85%
    04:00 +14°C° 0 mm 2 mps 754 mmHg 86%
    05:00 +15°C° 0 mm 2 mps 755 mmHg 87%
    06:00 +15°C° 0 mm 1 mps 755 mmHg 87%
    07:00 +15°C° 0 mm 1 mps 756 mmHg 87%
    08:00 +18°C° 0 mm 2 mps 756 mmHg 73%
    09:00 +21°C° 0 mm 2 mps 756 mmHg 59%
    10:00 +25°C° 0 mm 2 mps 756 mmHg 45%
    11:00 +26°C° 0 mm 2 mps 755 mmHg 42%
    12:00 +27°C° 0 mm 3 mps 754 mmHg 39%
    13:00 +28°C° 0 mm 3 mps 754 mmHg 36%
    14:00 +28°C° 0 mm 3 mps 753 mmHg 39%
    15:00 +27°C° 0 mm 3 mps 753 mmHg 42%
    16:00 +26°C° 0 mm 4 mps 752 mmHg 45%
    17:00 +24°C° 0 mm 3 mps 752 mmHg 53%
    18:00 +21°C° 0 mm 3 mps 753 mmHg 61%
    19:00 +19°C° 0 mm 3 mps 753 mmHg 69%
    20:00 +19°C° 0 mm 3 mps 754 mmHg 72%
    21:00 +18°C° 0 mm 3 mps 754 mmHg 74%
    22:00 +18°C° 0 mm 3 mps 755 mmHg 77%
    23:00 +18°C° 0 mm 3 mps 754 mmHg 79%

    23 August, Thursday

    Time Temperature Precipitation Wind Pressure Humidity
    00:00 +18°C° 0 mm 3 mps 754 mmHg 82%
    01:00 +18°C° 0 mm 3 mps 754 mmHg 85%
    02:00 +17°C° 0 mm 2 mps 754 mmHg 86%
    03:00 +17°C° 0 mm 2 mps 754 mmHg 87%
    04:00 +17°C° 0 mm 2 mps 754 mmHg 88%
    05:00 +17°C° 0 mm 2 mps 754 mmHg 88%
    06:00 +17°C° 0 mm 2 mps 755 mmHg 87%
    07:00 +18°C° 0 mm 1 mps 755 mmHg 87%
    08:00 +20°C° 0 mm 2 mps 755 mmHg 75%
    09:00 +24°C° 0 mm 2 mps 755 mmHg 63%
    10:00 +27°C° 0 mm 2 mps 755 mmHg 50%
    11:00 +28°C° 0 mm 2 mps 754 mmHg 46%
    12:00 +29°C° 0 mm 3 mps 754 mmHg 42%
    13:00 +30°C° 0 mm 3 mps 753 mmHg 38%
    14:00 +29°C° 0 mm 3 mps 753 mmHg 40%
    15:00 +29°C° 0 mm 4 mps 752 mmHg 42%
    16:00 +28°C° 0 mm 4 mps 752 mmHg 44%
    17:00 +26°C° 0 mm 4 mps 752 mmHg 56%
    18:00 +22°C° 0 mm 3 mps 753 mmHg 69%
    19:00 +20°C° 0 mm 3 mps 753 mmHg 81%
    20:00 +20°C° 0 mm 3 mps 754 mmHg 84%
    21:00 +20°C° 0 mm 3 mps 754 mmHg 86%
    22:00 +19°C° 0 mm 3 mps 754 mmHg 88%
    23:00 +19°C° 0 mm 3 mps 754 mmHg 90%
    Show more